AAR8199 RKJY-RKPC

Flight info

Callsign AAR8199
Flight time 0h 25m
Altitude 14000
Route GOSBO4S GOSBO A586 MAKET
Aircraft A321/M-SDE3FGHIRWY/LB1

Departure

Time 2026-04-26 16:06
Airport Yeosu Airport (RKJY)

Arrival

Time 2026-04-26 16:31
Airport Jeju International Airport (RKPC)
Time Latitude Longitude Altitude Speed Heading
2026-04-26 15:39 34.84018 127.61478 95 ft 0 kts 292°
2026-04-26 15:55 34.84016 127.61484 93 ft 4 kts 294°
2026-04-26 15:56 34.84003 127.61512 91 ft 4 kts 306°
2026-04-26 15:56 34.83987 127.61538 89 ft 4 kts 297°
2026-04-26 15:56 34.83983 127.61558 90 ft 2 kts 246°
2026-04-26 15:56 34.83996 127.61581 90 ft 4 kts 196°
2026-04-26 15:57 34.84019 127.61577 93 ft 4 kts 155°
2026-04-26 15:57 34.84029 127.61571 93 ft 1 kts 158°
2026-04-26 16:00 34.84028 127.61572 89 ft 1 kts 159°
2026-04-26 16:01 34.84025 127.61558 89 ft 2 kts 289°
2026-04-26 16:01 34.84067 127.61550 97 ft 9 kts 346°
2026-04-26 16:01 34.84135 127.61519 95 ft 11 kts 338°
2026-04-26 16:01 34.84217 127.61479 97 ft 14 kts 338°
2026-04-26 16:02 34.84320 127.61429 98 ft 18 kts 338°
2026-04-26 16:02 34.84452 127.61364 93 ft 21 kts 338°
2026-04-26 16:02 34.84553 127.61401 90 ft 9 kts 67°
2026-04-26 16:02 34.84571 127.61454 88 ft 11 kts 68°
2026-04-26 16:03 34.84649 127.61521 85 ft 16 kts 342°
2026-04-26 16:03 34.84782 127.61457 68 ft 25 kts 338°
2026-04-26 16:03 34.84953 127.61372 52 ft 22 kts 338°
2026-04-26 16:03 34.85067 127.61287 43 ft 14 kts 343°
2026-04-26 16:04 34.85093 127.61302 40 ft 1 kts 97°
2026-04-26 16:04 34.85082 127.61309 42 ft 2 kts 158°
2026-04-26 16:04 34.85074 127.61313 42 ft 0 kts 157°
2026-04-26 16:05 34.84915 127.61393 58 ft 64 kts 158°
2026-04-26 16:05 34.84257 127.61713 98 ft 138 kts 158°
2026-04-26 16:06 34.83256 127.62218 543 ft 156 kts 158°
2026-04-26 16:06 34.82239 127.62746 1213 ft 165 kts 158°
2026-04-26 16:06 34.81138 127.63338 1693 ft 182 kts 157°
2026-04-26 16:06 34.79930 127.64000 2129 ft 199 kts 157°
2026-04-26 16:07 34.78603 127.64712 2611 ft 216 kts 159°
2026-04-26 16:07 34.77106 127.65331 3034 ft 240 kts 167°
2026-04-26 16:07 34.75402 127.65822 3604 ft 262 kts 169°
2026-04-26 16:07 34.73581 127.66282 4461 ft 270 kts 169°
2026-04-26 16:08 34.71737 127.66740 5435 ft 272 kts 168°
2026-04-26 16:08 34.70510 127.67051 6101 ft 272 kts 167°
2026-04-26 16:08 34.68018 127.67698 7323 ft 277 kts 167°
2026-04-26 16:08 34.66106 127.68208 7774 ft 283 kts 168°
2026-04-26 16:09 34.64172 127.68735 8087 ft 287 kts 168°
2026-04-26 16:09 34.62216 127.69271 9020 ft 289 kts 168°
2026-04-26 16:09 34.60237 127.69814 9889 ft 294 kts 168°
2026-04-26 16:09 34.58208 127.70368 10364 ft 314 kts 168°
2026-04-26 16:10 34.56000 127.70968 10685 ft 335 kts 168°
2026-04-26 16:10 34.53688 127.71598 11321 ft 344 kts 168°
2026-04-26 16:10 34.51337 127.72240 12118 ft 349 kts 168°
2026-04-26 16:10 34.48952 127.72891 12904 ft 353 kts 168°
2026-04-26 16:11 34.46537 127.73552 13622 ft 359 kts 168°
2026-04-26 16:11 34.44087 127.74223 13860 ft 362 kts 168°
2026-04-26 16:11 34.41629 127.74894 13921 ft 362 kts 169°
2026-04-26 16:11 34.39172 127.75565 13932 ft 362 kts 169°
2026-04-26 16:12 34.36712 127.76238 13935 ft 362 kts 169°
2026-04-26 16:12 34.34255 127.76907 13937 ft 362 kts 169°
2026-04-26 16:12 34.29316 127.78030 13937 ft 360 kts 180°
2026-04-26 16:13 34.26834 127.77752 13938 ft 357 kts 195°
2026-04-26 16:13 34.24517 127.76743 13937 ft 354 kts 210°
2026-04-26 16:13 34.22491 127.75089 13936 ft 350 kts 224°
2026-04-26 16:13 34.20824 127.72965 13935 ft 348 kts 231°
2026-04-26 16:14 34.19222 127.70770 13935 ft 349 kts 231°
2026-04-26 16:14 34.17613 127.68574 13946 ft 349 kts 230°
2026-04-26 16:14 34.14388 127.64198 13957 ft 349 kts 230°
2026-04-26 16:15 34.12772 127.62013 13962 ft 349 kts 230°
2026-04-26 16:15 34.11159 127.59830 13966 ft 349 kts 230°
2026-04-26 16:15 34.09547 127.57645 13965 ft 349 kts 230°
2026-04-26 16:16 34.06324 127.53273 13966 ft 349 kts 230°
2026-04-26 16:16 34.04712 127.51089 13969 ft 348 kts 230°
2026-04-26 16:16 34.03103 127.48910 13971 ft 348 kts 230°
2026-04-26 16:16 34.01512 127.46756 13974 ft 348 kts 230°
2026-04-26 16:17 33.99907 127.44580 13976 ft 346 kts 230°
2026-04-26 16:17 33.98339 127.42458 13915 ft 331 kts 230°
2026-04-26 16:17 33.96833 127.40426 13690 ft 321 kts 230°
2026-04-26 16:17 33.95353 127.38431 13267 ft 318 kts 230°
2026-04-26 16:18 33.93888 127.36454 12818 ft 316 kts 230°
2026-04-26 16:18 33.91125 127.32422 11966 ft 308 kts 240°
2026-04-26 16:19 33.89063 127.27946 11112 ft 305 kts 243°
2026-04-26 16:19 33.88036 127.25720 10682 ft 303 kts 244°
2026-04-26 16:19 33.86341 127.22058 10010 ft 301 kts 243°
2026-04-26 16:20 33.85002 127.19166 9716 ft 290 kts 243°
2026-04-26 16:20 33.83067 127.14983 9025 ft 284 kts 243°
2026-04-26 16:20 33.82110 127.12918 8665 ft 281 kts 243°
2026-04-26 16:21 33.81159 127.10868 8287 ft 280 kts 242°
2026-04-26 16:21 33.80214 127.08835 7962 ft 277 kts 242°
2026-04-26 16:21 33.79276 127.06818 7580 ft 276 kts 242°
2026-04-26 16:21 33.78341 127.04810 7217 ft 275 kts 242°
2026-04-26 16:22 33.77412 127.02810 6877 ft 273 kts 242°
2026-04-26 16:22 33.76492 127.00828 6551 ft 270 kts 242°
2026-04-26 16:22 33.75580 126.98860 6195 ft 269 kts 242°
2026-04-26 16:22 33.74671 126.96892 5803 ft 269 kts 242°
2026-04-26 16:23 33.73765 126.94941 5458 ft 267 kts 241°
2026-04-26 16:23 33.72863 126.93007 5149 ft 264 kts 241°
2026-04-26 16:23 33.71971 126.91096 4828 ft 261 kts 241°
2026-04-26 16:23 33.71086 126.89203 4496 ft 259 kts 242°
2026-04-26 16:24 33.70400 126.87218 4133 ft 257 kts 251°
2026-04-26 16:24 33.69652 126.85292 3968 ft 254 kts 240°
2026-04-26 16:24 33.68724 126.83449 3976 ft 259 kts 239°
2026-04-26 16:24 33.67772 126.81609 3977 ft 259 kts 239°
2026-04-26 16:25 33.66830 126.79767 3976 ft 259 kts 239°
2026-04-26 16:25 33.65889 126.77917 3975 ft 261 kts 239°
2026-04-26 16:25 33.64953 126.76080 3978 ft 262 kts 239°
2026-04-26 16:25 33.64009 126.74229 3974 ft 252 kts 239°
2026-04-26 16:26 33.63133 126.72518 3815 ft 229 kts 241°
2026-04-26 16:26 33.62590 126.71455 3724 ft 214 kts 241°
2026-04-26 16:26 33.61593 126.69499 3201 ft 204 kts 240°
2026-04-26 16:26 33.60861 126.68066 2997 ft 201 kts 241°
2026-04-26 16:27 33.60127 126.66629 3020 ft 202 kts 240°
2026-04-26 16:27 33.59395 126.65198 2943 ft 194 kts 241°
2026-04-26 16:27 33.58734 126.63912 2768 ft 172 kts 242°
2026-04-26 16:27 33.58130 126.62730 2578 ft 163 kts 243°
2026-04-26 16:28 33.57543 126.61581 2367 ft 160 kts 243°
2026-04-26 16:28 33.56963 126.60446 2154 ft 159 kts 243°
2026-04-26 16:28 33.56384 126.59314 1933 ft 158 kts 240°
2026-04-26 16:28 33.55812 126.58198 1716 ft 155 kts 239°
2026-04-26 16:29 33.55248 126.57097 1505 ft 154 kts 238°
2026-04-26 16:29 33.54704 126.56036 1323 ft 143 kts 238°
2026-04-26 16:29 33.54200 126.55054 1138 ft 135 kts 239°
2026-04-26 16:29 33.53705 126.54088 958 ft 136 kts 238°
2026-04-26 16:30 33.53216 126.53125 790 ft 135 kts 239°
2026-04-26 16:30 33.52735 126.52179 570 ft 134 kts 238°
2026-04-26 16:30 33.52245 126.51235 415 ft 132 kts 237°
2026-04-26 16:30 33.51756 126.50285 234 ft 132 kts 237°
2026-04-26 16:31 33.51276 126.49346 96 ft 131 kts 237°
2026-04-26 16:31 33.50860 126.48538 93 ft 93 kts 238°
2026-04-26 16:31 33.50610 126.48050 93 ft 50 kts 238°
2026-04-26 16:31 33.50458 126.47763 95 ft 24 kts 225°
2026-04-26 16:32 33.50346 126.47776 96 ft 14 kts 150°
2026-04-26 16:32 33.50303 126.47822 94 ft 9 kts 101°
2026-04-26 16:32 33.50347 126.47918 95 ft 12 kts 59°
2026-04-26 16:32 33.50394 126.48010 93 ft 14 kts 58°
2026-04-26 16:33 33.50452 126.48122 94 ft 17 kts 58°
2026-04-26 16:33 33.50520 126.48254 93 ft 20 kts 58°
2026-04-26 16:33 33.50596 126.48404 93 ft 22 kts 58°
2026-04-26 16:33 33.50679 126.48565 90 ft 23 kts 58°
2026-04-26 16:34 33.50760 126.48723 90 ft 18 kts 58°
2026-04-26 16:34 33.50799 126.48843 89 ft 8 kts 113°
2026-04-26 16:34 33.50753 126.48880 91 ft 9 kts 148°
2026-04-26 16:34 33.50705 126.48938 93 ft 11 kts 104°
2026-04-26 16:35 33.50737 126.49026 89 ft 13 kts 58°
2026-04-26 16:35 33.50788 126.49125 89 ft 15 kts 58°
2026-04-26 16:35 33.50847 126.49240 92 ft 17 kts 58°
2026-04-26 16:35 33.50898 126.49343 92 ft 10 kts 75°
2026-04-26 16:36 33.50850 126.49375 95 ft 9 kts 184°
2026-04-26 16:36 33.50796 126.49371 93 ft 3 kts 183°
2026-04-26 16:36 33.50784 126.49370 94 ft 2 kts 183°
2026-04-26 16:36 33.50782 126.49370 94 ft 0 kts 183°